SPACEBEE-108 (48895 NORAD) Tracking and Keplerian Element Data

This shows tracking and keplerian element data for the satellite.

Feedback or suggestion? Click here.




ElementValue
Catalog48895
NameSPACEBEE-108
Epoch Orbit1674
Epoch Day287.59481201
Epoch Year2021
RAAN54.7957
Inclination97.5283
Eccentricity0.0008697
Argument of Perigee227.5501
Mean Anonmoly132.4995
Mean Motion15.12448189
Decay Rate2.888E-05
L11 48895U 21059S 21287.59481201 .00002888 00000-0 16975-3 0 9998
L22 48895 97.5283 54.7957 0008697 227.5501 132.4995 15.12448189 16743

Live tracking and technical data element details for SPACEBEE-108 (NORAD 48895). SPACEBEE-108 can be tracked NOW for your location showing map with azimuth and elevation plus other details from your city location.

Track the satellite on the map from your city or location and see movement details for azimuth, elevation, latitude, longitude, range, height, and movement on the map or in text.







IsCatalogInMostPopularTable: catalog: 48895, numindb: 22
Update: records affected: 1



GetName: 48895 SPACEBEE-108

Hit Count: updated at: Tue, 19 Oct 2021 09:16:10 GMT